Location: Mount Tamalpais State Park
(37.9108°N, 122.6128°W)
Time: 00:50:30
(UTC-07:00)

Cosmos 1814 Rocket - Visible Passes

Search period start: 30 August 2015 00:00
Search period end: 09 September 2015 00:00
Orbit: 745 x 788 km, 74.1° (Epoch: 29 August)

Date Brightness Start Highest point End Pass type
(mag) Time Alt. Az. Time Alt. Az. Time Alt. Az.
30 Aug 6.9 02:32:05 10° NE 02:33:23 11° NE 02:34:59 10° ENE visible
30 Aug 3.9 04:11:04 10° NNW 04:16:21 90° E 04:16:44 78° SSE visible
31 Aug 4.9 03:33:43 10° N 03:38:05 47° NE 03:38:05 47° NE visible
31 Aug 5.8 05:17:05 10° WNW 05:18:12 13° WNW 05:18:12 13° WNW visible
01 Sep 5.9 02:56:38 10° N 02:59:54 26° NE 02:59:54 26° NE visible
01 Sep 5.8 04:38:38 10° NW 04:40:03 17° NW 04:40:03 17° NW visible
02 Sep 6.6 02:19:58 10° NNE 02:22:00 16° NE 02:22:00 16° NE visible
02 Sep 5.9 04:00:44 10° NNW 04:02:10 18° NNW 04:02:10 18° NNW visible
03 Sep 6.2 03:23:10 10° NNW 03:24:28 18° NNW 03:24:28 18° NNW visible
04 Sep 6.5 02:45:51 10° N 02:46:54 16° N 02:46:54 16° N visible
05 Sep 6.8 02:08:49 10° N 02:09:27 13° N 02:09:27 13° N visible
